Location: Wildlife_Club
(35.6000°N, 81.4330°W)
Time: 23:55:02
(UTC-04:00)

Daily predictions for brighter satellites

Satellite Brightness Start Highest point End
(mag) Time Altitude Azimuth Time Altitude Azimuth Time Altitude Azimuth
Cosmos 2278 Rocket 4.1 20:57:39 10° NW 21:02:31 30° WSW 21:07:23 10° SSW
ALOS 2.3 21:02:16 10° SSE 21:06:55 76° ENE 21:11:35 10° N
Cosmos 2369 Rocket 3.8 21:08:51 10° N 21:12:54 20° ENE 21:16:55 10° ESE
ISS -1.7 21:10:01 10° WSW 21:13:07 39° NW 21:16:13 10° NE
Cosmos 1602 Rocket 3.7 21:12:14 10° S 21:16:38 58° E 21:21:02 10° NNE
ATLAS 3B R/B 3.3 21:10:31 10° S 21:17:35 41° ESE 21:24:35 10° NE
Cosmos 1666 2.7 21:13:59 10° N 21:17:53 71° E 21:21:45 10° SSE
USA 186 1.7 21:15:55 10° S 21:18:41 65° W 21:21:18 10° NNW
Abrixas rocket 3.6 21:17:43 10° WNW 21:20:48 32° SW 21:23:53 10° SSE
SL-16 R/B 4.4 21:16:42 10° WSW 21:21:37 30° WNW 21:26:34 10° N
Cosmos 2058 Rocket 3.6 21:17:35 10° NNW 21:21:54 62° W 21:26:11 10° S
Cosmos 1302 Rocket 4.3 21:23:14 10° NNW 21:28:28 72° WSW 21:33:42 10° S
Tsikada Rocket 4.1 21:22:27 10° S 21:28:46 65° E 21:35:04 10° NNE
Cosmos 1812 Rocket 4.0 21:26:32 10° N 21:30:44 43° E 21:34:25 13° SSE
CZ-2C R/B 0.4 21:33:08 13° S 21:35:01 80° WSW 21:37:18 10° NNW
SPOT 5 3.6 21:32:24 15° SE 21:35:21 29° ENE 21:39:07 10° N
H-2A R/B 2.0 21:36:22 12° SSE 21:40:20 73° ENE 21:44:43 10° N
Lacrosse 4 Rocket 1.7 21:37:08 10° S 21:40:54 40° ESE 21:44:44 10° NE
CZ-4 SHROUD 4.3 21:40:45 20° ESE 21:42:11 29° ENE 21:44:59 10° N
ERS-1 Rocket 3.0 21:37:38 10° SSE 21:42:39 87° WSW 21:47:41 10° NNW
deb Chang Zheng 4 3.8 21:41:13 10° N 21:45:35 76° WNW 21:49:55 10° SSW
Cosmos 1515 3.8 21:43:19 12° S 21:46:46 53° E 21:50:32 10° NNE
GEOS 3 Rocket 3.6 21:42:38 16° SE 21:46:56 83° NE 21:52:11 10° NNW
Cosmos 2228 4.0 21:42:58 10° NNW 21:47:13 48° W 21:51:27 10° SSW
Cosmos 1626 Rocket 4.2 21:43:32 10° SSW 21:47:54 59° W 21:52:16 10° N
PSLV R/B 4.0 21:47:37 24° ESE 21:48:47 33° ENE 21:51:39 10° N
Cosmos 1816 Rocket 4.5 21:49:33 10° S 21:55:54 82° E 22:02:15 10° N
Atlas Centaur 2 3.0 21:49:56 10° WSW 21:56:49 59° S 22:03:24 16° ESE
Cosmos 1238 4.1 21:55:13 13° S 21:57:57 83° W 22:00:58 10° N
Envisat 3.0 21:54:15 18° SSE 21:57:58 68° ENE 22:03:01 10° N
Cosmos 407 Rocket 3.6 21:55:51 10° S 22:00:57 52° ESE 22:06:00 10° NNE
USA 238 DEB 4.4 21:56:25 10° S 22:02:37 33° ESE 22:08:46 10° NE
USA 238 4.4 21:56:33 10° S 22:02:43 33° ESE 22:08:51 10° NE
Cosmos 1634 Rocket 4.3 21:57:38 10° N 22:03:38 50° E 22:07:18 23° SE
Cosmos 1900 4.3 22:01:12 10° SSW 22:06:18 70° ESE 22:11:26 10° NNE
Cosmos 1943 Rocket 3.8 22:02:17 10° N 22:06:25 21° ENE 22:08:55 16° E
Cosmos 1953 Rocket 3.8 22:06:21 27° SSE 22:08:25 48° E 22:12:42 10° NNE
Cosmos 1943 3.3 22:05:32 10° SSW 22:11:11 77° WNW 22:16:54 10° NNE
Cosmos 2346 Rocket 4.4 22:10:16 13° S 22:15:50 76° E 22:21:59 10° N
Cosmos 1939 Rocket 3.6 22:13:45 18° S 22:16:38 53° W 22:20:41 10° NNW
Cosmos 1953 4.3 22:18:28 10° NE 22:20:31 15° ENE 22:20:31 15° ENE
Cosmos 1954 Rocket 4.3 22:19:49 30° SSE 22:21:55 45° ESE 22:26:58 10° NNE
Cosmos 1932 4.5 22:17:18 10° S 22:23:17 56° ESE 22:29:21 10° NE
Cosmos 1346 Rocket 2.7 22:27:06 34° S 22:28:43 85° W 22:32:40 10° N
Cosmos 1842 3.8 22:35:17 40° ENE 22:35:17 40° ENE 22:38:40 10° NNE
Cosmos 1992 Rocket 4.4 22:30:07 10° NNW 22:35:14 58° WSW 22:37:49 28° S
SeaSat 1 2.4 22:35:39 42° SSE 22:37:22 84° ENE 22:42:20 10° NNW
ARGOS 3.3 22:36:49 40° SE 22:38:39 61° ENE 22:44:00 10° N
Cosmos 1758 Rocket 3.5 22:40:28 40° SSW 22:42:02 83° W 22:46:25 10° N
Meteor 1-21 4.2 22:39:58 31° S 22:42:53 79° E 22:48:43 10° N
USA 81 4.4 22:39:33 10° N 22:44:47 64° W 22:47:29 28° SSW
MetOp-B 4.4 22:45:19 31° S 22:47:49 62° WSW 22:53:08 10° NNW
Geosat 4.0 22:48:15 10° NE 22:53:12 54° ESE 22:53:29 54° SE
CZ-4B R/B 4.3 22:50:44 10° N 22:55:43 51° WNW 22:59:55 15° SW
Cosmos 2369 Rocket 2.7 22:51:46 10° NNW 22:57:15 53° WSW 22:59:14 36° SSW
Landsat 7 3.9 22:58:24 55° E 22:58:47 57° ENE 23:03:28 10° N
Cosmos 1023 Rocket 4.4 22:59:56 59° SSE 23:00:42 69° ESE 23:05:57 10° NNE
Cosmos 1850 Rocket 4.2 23:01:15 51° E 23:01:15 51° E 23:06:12 10° NNE
Cosmos 1766 3.3 22:59:03 10° N 23:03:01 75° W 23:03:01 75° W
H-2A R/B 2.2 23:04:51 49° E 23:05:12 50° ENE 23:10:05 10° N
DELTA 2 DEB (DPAF) 4.0 23:05:26 80° ESE 23:05:36 83° ENE 23:10:06 10° N
YAOGAN 6 3.8 23:06:29 35° WSW 23:06:42 36° W 23:10:11 10° NNW
CZ-4 R/B 4.5 23:02:02 10° N 23:06:56 57° WNW 23:09:21 29° SW
NOAA 11 4.1 23:05:45 54° S 23:07:02 80° WSW 23:12:28 10° NNW
Cosmos 1140 Rocket 3.3 23:07:17 63° S 23:08:07 81° ESE 23:13:23 10° NNE
ATLAS 3B R/B 4.1 23:01:06 10° WSW 23:08:19 42° NW 23:15:25 10° NNE
Cosmos 1758 4.0 23:04:54 10° N 23:08:15 48° NE 23:08:15 48° NE
Spot 4 4.4 23:11:57 42° ENE 23:11:57 42° ENE 23:16:20 10° N
IGS 5A 4.3 23:12:41 41° NE 23:12:41 41° NE 23:15:59 10° N
SPOT 1/Viking Rocket 4.2 23:12:56 37° SW 23:14:21 46° W 23:19:18 10° NNW
Terra 2.0 23:14:42 57° ENE 23:14:42 57° ENE 23:19:17 10° N
Cosmos 1842 Rocket 4.5 23:11:59 10° N 23:15:21 38° NE 23:15:21 38° NE
NOSS 3-2 (A) 4.0 23:20:30 39° E 23:20:30 39° E 23:25:24 10° NE
Lacrosse 4 Rocket 4.3 23:17:25 10° W 23:19:49 15° NW 23:22:13 10° NNW
USA 234 3.3 23:21:50 49° ESE 23:23:44 76° NE 23:30:18 10° NW
Cosmos 2084 3.9 23:21:05 10° NNW 23:24:37 58° N 23:24:37 58° N
Cosmos 1092 Rocket 4.0 23:27:08 60° ESE 23:27:40 62° E 23:33:51 10° NNE
Cosmos 614 Rocket 3.9 23:30:46 76° ENE 23:30:46 76° ENE 23:35:39 10° NNE
Cosmos 1805 4.2 23:27:10 10° N 23:29:59 45° N 23:29:59 45° N
COSMOS 2406 3.6 23:33:42 38° SW 23:35:43 61° WNW 23:41:25 10° NNE
Nadezhda 4 Rocket 4.0 23:34:52 59° SSW 23:36:09 82° W 23:42:31 10° N
DMSP B5D2-2 4.2 23:39:43 10° N 23:44:57 66° WNW 23:45:23 63° WSW
Atlas Centaur 2 3.2 23:38:56 10° W 23:46:02 48° SSW 23:46:02 48° SSW
Cosmos 2082 Rocket 4.5 23:49:20 12° ENE 23:49:20 12° ENE 23:49:55 10° ENE
Cosmos 2221 4.4 23:45:28 10° NNE 23:47:39 23° NE 23:47:39 23° NE
Cosmos 1943 Rocket 2.6 23:45:03 10° NNW 23:50:24 49° WSW 23:50:26 49° WSW
Cosmos-2242 4.5 23:48:01 10° NNW 23:51:34 32° W 23:51:34 32° W
